Weather History for KAKO - February, 2013

Change the Weather History Date:

Thursday, February 21, 2013

  Actual Average Record
Temperature  
Mean Temperature 15 °F 33 °F  
Max Temperature 18 °F 45 °F 71 °F (1982)
Min Temperature 12 °F 21 °F -6 °F (1953)
Degree Days  
Heating Degree Days 50    
Month to date heating degree days 695  
Cooling Degree Days 0    
Month to date cooling degree days 0  
Moisture  
Dew Point 11 °F    
Average Humidity 86    
Maximum Humidity 92    
Minimum Humidity 80    
Precipitation  
Precipitation 0.04 in 0.02 in 0.07 in (1962)
Month to date precipitation 0.05 0.30  
Year to date precipitation 0.08 0.60  
Sea Level Pressure  
Sea Level Pressure 29.81 in    
Wind  
Wind Speed 12 mph (NNE)    
Max Wind Speed 17 mph    
Max Gust Speed 21 mph    
Visibility 4 miles    
Events Snow    
T = Trace of Precipitation, MM = Missing Value Source: NWS Daily Summary

Daily Weather History Graph

Daily Weather History Graph

Search for Another Location

Airport or City:

Trip Planner

Search our weather history database for the weather conditions in past years. The results will help you decide how hot, cold, wet, or windy it might be!

Date:

Astronomy

Feb. 21, 2013 Rise Set
Actual Time 6:37 AM MST 5:35 PM MST
Civil Twilight 6:10 AM MST 6:03 PM MST
Nautical Twilight 5:38 AM MST 6:35 PM MST
Astronomical Twilight 5:07 AM MST 7:06 PM MST
Moon 1:52 PM MST (2/21) 3:43 AM MST (2/21)
Length of Visible Light 11h 53m
Length of Day
10h 58m
Waxing Gibbous, 84% of the Moon is Illuminated
Feb 21
Waxing Gibbous
Feb 25
Full
Mar 4
Last Quarter
Mar 11
New
Mar 19
First Quarter

Hourly Weather History & Observations

Time (MST) Temp. Windchill Dew Point Humidity Pressure Visibility Wind Dir Wind Speed Gust Speed Precip Events Conditions
12:07 AM 14.0 °F -0.8 °F 10.4 °F 86% 29.72 in 4.0 mi East 13.8 mph - 0.00 in Snow Light Snow
12:35 AM 14.0 °F -0.2 °F 10.4 °F 86% 29.72 in 1.8 mi East 12.7 mph - 0.00 in Snow Light Snow
12:41 AM 14.0 °F -0.8 °F 10.4 °F 86% 29.71 in 1.0 mi East 13.8 mph - 0.01 in Snow Light Snow
12:47 AM 14.0 °F -0.8 °F 10.4 °F 86% 29.71 in 0.8 mi East 13.8 mph - 0.01 in Snow Light Snow
12:48 AM 14.0 °F 0.5 °F 10.9 °F 88% 29.86 in 0.8 mi East 11.5 mph - 0.01 in Snow Light Snow
12:56 AM 14.0 °F -0.2 °F 10.4 °F 86% 29.71 in 1.0 mi East 12.7 mph - 0.00 in Snow Light Snow
1:21 AM 14.0 °F -0.2 °F 10.4 °F 86% 29.71 in 0.8 mi ENE 12.7 mph - 0.00 in Snow Light Snow
1:31 AM 14.0 °F -0.2 °F 10.4 °F 86% 29.70 in 1.0 mi ENE 12.7 mph - 0.01 in Snow Light Snow
1:48 AM 14.0 °F -1.4 °F 10.4 °F 86% 29.70 in 1.2 mi ENE 15.0 mph - 0.01 in Snow Light Snow
1:53 AM 14.0 °F 1.2 °F 10.9 °F 88% 29.84 in 1.2 mi ENE 10.4 mph - 0.01 in Snow Light Snow
2:18 AM 14.0 °F -0.8 °F 10.4 °F 86% 29.69 in 0.8 mi East 13.8 mph - 0.00 in Snow Light Snow
2:25 AM 14.0 °F -1.4 °F 10.4 °F 86% 29.69 in 0.8 mi ENE 15.0 mph - 0.00 in Snow Light Snow
2:30 AM 14.0 °F -0.2 °F 10.4 °F 86% 29.68 in 1.0 mi ENE 12.7 mph - 0.00 in Snow Light Snow
2:36 AM 14.0 °F -0.8 °F 10.4 °F 86% 29.69 in 1.5 mi East 13.8 mph - 0.00 in Snow Light Snow
2:53 AM 14.0 °F -0.8 °F 10.9 °F 88% 29.84 in 1.2 mi East 13.8 mph - 0.00 in Snow Light Snow
3:03 AM 14.0 °F -1.4 °F 10.4 °F 86% 29.69 in 0.8 mi East 15.0 mph - 0.01 in Snow Light Snow
3:14 AM 14.0 °F -0.8 °F 10.4 °F 86% 29.69 in 1.2 mi East 13.8 mph - 0.01 in Snow Light Snow
3:20 AM 14.0 °F -1.4 °F 10.4 °F 86% 29.69 in 2.0 mi East 15.0 mph - 0.01 in Snow Light Snow
3:27 AM 14.0 °F -0.2 °F 10.4 °F 86% 29.69 in 3.0 mi East 12.7 mph - 0.01 in Snow Light Snow
3:39 AM 14.0 °F -0.8 °F 10.4 °F 86% 29.69 in 2.5 mi East 13.8 mph - 0.01 in Snow Light Snow
3:53 AM 14.0 °F -1.4 °F 10.9 °F 88% 29.85 in 2.5 mi East 15.0 mph - 0.01 in Snow Light Snow
4:08 AM 14.0 °F -0.8 °F 10.4 °F 86% 29.70 in 4.0 mi East 13.8 mph - 0.00 in Snow Light Snow
4:53 AM 14.0 °F -0.8 °F 10.9 °F 88% 29.89 in 5.0 mi East 13.8 mph - 0.00 in Snow Light Snow
5:29 AM 12.2 °F -1.8 °F 10.4 °F 92% 29.73 in 2.5 mi East 11.5 mph - 0.00 in Snow Light Snow
5:38 AM 12.2 °F -1.8 °F 10.4 °F 92% 29.73 in 4.0 mi East 11.5 mph - 0.00 in Snow Light Snow
5:53 AM 12.9 °F - 10.0 °F 88% 29.90 in 8.0 mi North - - 0.00 in   Overcast
6:04 AM 12.2 °F -0.2 °F 10.4 °F 92% 29.74 in 5.0 mi East 9.2 mph - 0.00 in Snow Light Snow
6:53 AM 12.9 °F 5.2 °F 10.0 °F 88% 29.93 in 8.0 mi East 4.6 mph - 0.00 in   Overcast
7:23 AM 12.2 °F 6.1 °F 10.4 °F 92% 29.78 in 6.0 mi ESE 3.5 mph - 0.00 in Snow Light Snow
7:53 AM 12.9 °F 5.2 °F 10.0 °F 88% 29.96 in 10.0 mi ENE 4.6 mph - 0.00 in   Overcast
8:00 AM 12.2 °F 1.7 °F 10.4 °F 92% 29.79 in 8.0 mi ENE 6.9 mph - 0.00 in Snow Light Snow
8:17 AM 12.2 °F 1.7 °F 8.6 °F 85% 29.79 in 1.8 mi NE 6.9 mph - 0.00 in Snow Light Snow
8:43 AM 12.2 °F 2.9 °F 10.4 °F 92% 29.79 in 1.0 mi ENE 5.8 mph - 0.00 in Snow Light Snow
8:53 AM 12.9 °F 0.7 °F 10.0 °F 88% 29.98 in 0.8 mi NE 9.2 mph - 0.00 in Snow Light Snow
9:14 AM 14.0 °F 2.9 °F 10.4 °F 86% 29.80 in 1.0 mi NNE 8.1 mph - 0.00 in Snow Light Snow
9:23 AM 14.0 °F 2.9 °F 8.6 °F 79% 29.79 in 1.0 mi NNE 8.1 mph - 0.01 in Snow Light Snow
9:30 AM 14.0 °F 2.9 °F 8.6 °F 79% 29.79 in 0.8 mi NNE 8.1 mph - 0.01 in Snow Light Snow
9:36 AM 14.0 °F 2.9 °F 8.6 °F 79% 29.80 in 1.2 mi NE 8.1 mph - 0.01 in Snow Light Snow
9:39 AM 14.0 °F 2.9 °F 8.6 °F 79% 29.79 in 1.8 mi NNE 8.1 mph - 0.01 in Snow Light Snow
9:43 AM 14.0 °F 3.9 °F 8.6 °F 79% 29.79 in 3.0 mi NE 6.9 mph - 0.01 in Snow Light Snow
9:53 AM 14.0 °F 3.9 °F 9.0 °F 80% 29.97 in 4.0 mi NE 6.9 mph - 0.01 in Snow Light Snow
10:19 AM 15.8 °F 6.1 °F 10.4 °F 79% 29.79 in 5.0 mi North 6.9 mph - 0.00 in Snow Light Snow
10:53 AM 16.0 °F 1.7 °F 10.0 °F 77% 29.96 in 10.0 mi North 13.8 mph - 0.00 in   Overcast
11:46 AM 15.8 °F 0.9 °F 10.4 °F 79% 29.77 in 10.0 mi North 15.0 mph - N/A   Overcast
11:53 AM 16.0 °F 1.1 °F 10.9 °F 81% 29.96 in 10.0 mi NNW 15.0 mph - N/A   Overcast
12:12 PM 17.6 °F 3.2 °F 10.4 °F 73% 29.77 in 10.0 mi North 15.0 mph - N/A   Overcast
12:53 PM 17.1 °F 1.5 °F 12.0 °F 81% 29.93 in 10.0 mi North 17.3 mph - N/A   Overcast
12:59 PM 17.6 °F 3.2 °F 12.2 °F 79% 29.75 in 10.0 mi NNW 15.0 mph - N/A   Overcast
1:39 PM 17.6 °F 2.7 °F 12.2 °F 79% 29.75 in 2.5 mi North 16.1 mph - 0.00 in Snow Light Snow
1:53 PM 18.0 °F 3.1 °F 12.0 °F 78% 29.92 in 2.5 mi NNW 16.1 mph - 0.00 in Snow Light Snow
2:34 PM 17.6 °F 3.7 °F 12.2 °F 79% 29.76 in 3.0 mi North 13.8 mph - 0.00 in Snow Light Snow
2:38 PM 17.6 °F 4.3 °F 12.2 °F 79% 29.76 in 2.5 mi North 12.7 mph - 0.00 in Snow Light Snow
2:51 PM 17.6 °F 3.7 °F 12.2 °F 79% 29.76 in 2.5 mi North 13.8 mph - 0.00 in Snow Light Snow
2:53 PM 18.0 °F 4.8 °F 12.0 °F 78% 29.93 in 2.5 mi North 12.7 mph - 0.00 in Snow Light Snow
3:01 PM 17.6 °F 3.7 °F 12.2 °F 79% 29.76 in 3.0 mi North 13.8 mph - 0.00 in Snow Light Snow
3:21 PM 17.6 °F 5.0 °F 12.2 °F 79% 29.77 in 4.0 mi North 11.5 mph - 0.00 in Snow Light Snow
3:53 PM 18.0 °F 4.2 °F 12.0 °F 78% 29.94 in 5.0 mi North 13.8 mph - 0.00 in Snow Light Snow
4:53 PM 17.1 °F 3.6 °F 12.0 °F 81% 29.96 in 7.0 mi North 12.7 mph - 0.00 in   Overcast
5:01 PM 17.6 °F 5.7 °F 12.2 °F 79% 29.79 in 8.0 mi North 10.4 mph - N/A   Overcast
5:12 PM 15.8 °F 2.1 °F 10.4 °F 79% 29.79 in 5.0 mi North 12.7 mph - 0.00 in Snow Light Snow
5:19 PM 15.8 °F 3.4 °F 12.2 °F 86% 29.80 in 1.8 mi North 10.4 mph - 0.00 in Snow Light Snow
5:34 PM 15.8 °F 2.1 °F 10.4 °F 79% 29.80 in 2.5 mi North 12.7 mph - 0.00 in Snow Light Snow
5:49 PM 15.8 °F 2.7 °F 10.4 °F 79% 29.80 in 4.0 mi North 11.5 mph - 0.00 in Snow Light Snow
5:53 PM 15.1 °F 2.5 °F 10.9 °F 84% 29.99 in 5.0 mi North 10.4 mph - 0.00 in Snow Light Snow
6:53 PM 12.9 °F 1.6 °F 10.9 °F 92% 30.01 in 5.0 mi NW 8.1 mph - 0.00 in Snow Light Snow
7:32 PM 15.8 °F 5.1 °F 12.2 °F 86% 29.83 in 7.0 mi NNW 8.1 mph - 0.00 in   Overcast
7:53 PM 15.1 °F 5.2 °F 12.0 °F 88% 30.02 in 8.0 mi NW 6.9 mph - 0.00 in   Overcast
9:18 PM 15.8 °F 4.2 °F 12.2 °F 86% 29.84 in 1.8 mi WNW 9.2 mph - 0.00 in Snow Light Snow
9:32 PM 15.8 °F 4.2 °F 12.2 °F 86% 29.83 in 2.0 mi WNW 9.2 mph - 0.00 in Snow Light Snow
9:48 PM 15.8 °F 3.4 °F 12.2 °F 86% 29.84 in 3.0 mi WNW 10.4 mph - 0.00 in Snow Light Snow
9:53 PM 16.0 °F 3.6 °F 12.9 °F 88% 30.02 in 3.0 mi WNW 10.4 mph - 0.00 in Snow Light Snow
10:13 PM 14.0 °F 2.9 °F 10.4 °F 86% 29.83 in 8.0 mi WNW 8.1 mph - 0.00 in   Mostly Cloudy
10:45 PM 14.0 °F 1.2 °F 12.2 °F 93% 29.83 in 7.0 mi West 10.4 mph - 0.00 in   Overcast
10:53 PM 15.1 °F 2.5 °F 12.9 °F 91% 30.01 in 8.0 mi WNW 10.4 mph - 0.00 in   Overcast
11:53 PM 16.0 °F 3.6 °F 14.0 °F 92% 30.01 in 8.0 mi WNW 10.4 mph - N/A   Overcast